Preview of NWS' New Version of Forecast
This preview is not operational and should not be used for support decisions.

Regional Weather Roundup (RWR)

Issued by National Weather Service (NWS)

                            
000
ASCA42 TJSJ 200510
RWRPR 
PUERTO RICO/U.S. VIRGIN ISLANDS HOURLY WEATHER ROUNDUP
NATIONAL WEATHER SERVICE SAN JUAN PR
100 AM AST TUE AUG 20 2019

PRZ001>002-007>008-010-200600-
PUERTO RICO
  
CITY           SKY/WX    TMP DP  RH WIND       PRES   REMARKS
SAN JUAN LMM   PTCLDY    81  79  94 E5        30.03F                  
CEIBA          PTCLDY    82  77  83 E5        30.04F HX  91           
$$

VIZ001>002-200600-
U.S. VIRGIN ISLANDS
  
CITY           SKY/WX    TMP DP  RH WIND       PRES   REMARKS
CHARLOTTE AMA  CLEAR     82  77  83 E7        30.02F HX  91           
CHRISTIANSTED  CLEAR     81  75  83 NE8       30.03F                  
$$

HOURLY WEATHER ROUNDUP FOR THE NEWS MEDIA
  
CITY           SKY/WX    TMP DP  RH WIND       PRES   REMARKS
ORLANDO        FAIR      79  75  87 CALM      30.11F                  
NEW YORK       FAIR      75  74  96 SW7       30.01S                  
NEWARK         FAIR      78  71  79 W8        30.01R                  
CHICAGO        FAIR      75  71  87 E5        30.01S                  
HARTFORD       FAIR      69  66  90 S3        29.97R                  
BOSTON         FAIR      77  68  73 W10       29.96R                  
DALLAS         PTCLDY    91  69  48 SE7       29.99R HX  96           
PHILADELPHIA   MOCLDY    82  73  74 CALM      30.03R                  
LOS ANGELES    CLEAR     68  61  78 SW7       29.91R                  
WASHINGTON DC  MOCLDY    75  69  81 NE6       30.04S